Regional Weather Roundup
Issued by NWS

Home | Current Version | Previous Version | Graphics & Text | Print | Product List | Glossary On
Versions: 1 2 3 4 5 6 7 8 9 10 11 12 13 14 15 16 17 18 19 20 21 22 23 24 25 26 27 28 29 30 31 32 33 34 35 36 37 38 39 40 41 42 43 44 45 46 47 48 49 50
808
ASUS45 KTFX 191510
RWRMT
MONTANA REGIONAL WEATHER ROUNDUP
NATIONAL WEATHER SERVICE GREAT FALLS MT
900 AM MDT THU OCT 19 2017

NOTE: "FAIR" INDICATES FEW OR NO CLOUDS BELOW 12000 FEET WITH NO
SIGNIFICANT WEATHER AND/OR OBSTRUCTIONS TO VISIBILITY.

MTZ001>007-043-191600-
WEST OF THE DIVIDE

CITY           SKY/WX    TMP DP  RH WIND       PRES   REMARKS
KALISPELL      CLOUDY    55  34  45 S9        29.64S
MISSOULA       MOCLDY    33  31  92 NW3       29.75R
BUTTE          CLOUDY    40  24  53 VRB5      29.86S
MULLAN PASS    MOCLDY    46  23  40 SW9G23    29.74S
ANACONDA         N/A     54  18  24 S16       29.80S
DEER LODGE       N/A     54  21  28 SW6       29.81R
EUREKA           N/A     55  36  47 MISG      29.61R
HAMILTON         N/A     55  23  28 S14       29.73S
LIBBY            N/A     55  36  47 CALM      29.61R
$$

MTZ008-052>055-191600-
SOUTHWEST MONTANA

CITY           SKY/WX    TMP DP  RH WIND       PRES   REMARKS
BOZEMAN        CLOUDY    45  31  58 SE9       29.83F
DILLON         CLOUDY    47  21  35 N5        29.89S
W YELLOWSTONE  CLOUDY    27  23  86 CALM      30.06S
ENNIS          CLOUDY    54  18  24 S15       29.94S
THREE FORKS      N/A     61  19  19 NE6       29.83F
TWIN BRIDGES     N/A     46  20  36 CALM      29.88S
$$

MTZ009-010-012-014-046-048-049-054-191600-
EAST SLOPES AND CENTRAL MONTANA

CITY           SKY/WX    TMP DP  RH WIND       PRES   REMARKS
CUT BANK       CLOUDY    58  23  26 SW9       29.60R
GREAT FALLS    CLOUDY    60  21  22 S21G28    29.68R
MALMSTROM AFB  CLOUDY    60  23  23 S23G31    29.66S
HELENA         MOSUNNY   49  28  44 VRB5      29.74R
BOWMANS CRNR     N/A     55  21  27 S17       29.67R
CHOTEAU          N/A     59  21  23 S16       29.65S
FAIRFIELD        N/A     58  21  24 S17G23    29.65R
POWER            N/A     55  23  29 S8        29.66R
RAYNESFORD       N/A     61  20  20 SW7       29.71R
ULM              N/A     60  23  23 S16G26    29.68R
$$

MTZ011-013-016-021-045-047-050-051-191600-
NORTH CENTRAL MONTANA

CITY           SKY/WX    TMP DP  RH WIND       PRES   REMARKS
HAVRE          CLOUDY    55  28  35 SW15      29.60R
LEWISTOWN      CLOUDY    63  21  20 SW18      29.76R
N BAR RANCH      N/A     63  19  19 SW14G28   29.80S
CHINOOK          N/A     50  30  46 CALM      29.61R
DENTON           N/A     56  25  29 S13       29.68R
GEYSER           N/A     60  21  22 SW3       29.71R
GRASS RANGE      N/A     57  25  29 SW15      29.71R
JUDITH GAP       N/A     50  26  39 SW14      29.80S
WINIFRED         N/A     63  22  20 S10       29.71R
$$

MTZ017>020-022>027-061-062-191600-
NORTHEAST MONTANA

CITY           SKY/WX    TMP DP  RH WIND       PRES   REMARKS
GLASGOW        CLOUDY    52  40  63 SE9       29.68R
JORDAN           N/A     57  30  35 CALM      29.73R
SIDNEY         CLOUDY    46  34  62 S6        29.74R
WOLF POINT     CLOUDY    42  32  67 CALM      29.71R
MALTA          SUNNY     46  36  66 NW6       29.66R
PLENTYWOOD       N/A     43  28  56 CALM      29.68R
POPLAR           N/A     43  32  65 CALM      29.71R
$$

MTZ028>42-056>058-191600-
SOUTHCENTRAL AND SOUTHEAST MONTANA

CITY           SKY/WX    TMP DP  RH WIND       PRES   REMARKS
BAKER          CLOUDY    49  35  58 CALM      29.82S
BILLINGS       MOSUNNY   58  25  28 SW8       29.81S
LIVINGSTON     CLOUDY    60  21  22 W20G26    29.84S
MILES CITY     CLOUDY    48  32  53 S13       29.78S
BIG TIMBER     SUNNY     57  21  24 W5        29.86S
FORSYTH          N/A     43  34  70 CALM      29.77S
HARLOWTON        N/A     48  28  46 MISG      29.80S
LAUREL           N/A     63  23  22 SW16      29.81S
$$

REGIONAL REPORTS...DAKOTAS

CITY           SKY/WX    TMP DP  RH WIND       PRES   REMARKS
WILLISTON      CLOUDY    42  32  67 CALM      29.72R
MINOT          CLOUDY    52  30  43 S14       29.71R
DICKINSON      CLOUDY    53  33  46 S7        29.77R
BEACH            N/A     57  28  33 SW13      29.82R
CROSBY           N/A     45  30  57 S17       29.68R
TIOGA            N/A     46  32  57 SW5       29.74R
WATFORD CITY     N/A     45  32  61 CALM      29.74R
BISMARCK       CLOUDY    48  36  63 SE5       29.81S
GRAND FORKS    MOSUNNY   46  30  53 SE13      29.84F
FARGO          SUNNY     50  32  50 S14       29.88S
BUFFALO SD       N/A     55  29  36 CALM      29.78R
RAPID CITY     SUNNY     59  28  30 SE6       29.88R
$$

REGIONAL REPORTS...WYOMING/IDAHO/WASHINGTON

CITY           SKY/WX    TMP DP  RH WIND       PRES   REMARKS
GILLETTE       CLOUDY    57  23  26 S10       29.90S
SHERIDAN       CLOUDY    53  34  48 N7        29.86R
BUFFALO WY     CLOUDY    60  21  22 SW9       29.91S
CODY           SUNNY     55  21  26 SW6       29.96
YELLOWSTONE LA   N/A     28  25  88 CALM      30.12F
IDAHO FALLS    CLOUDY    34  28  79 CALM      30.00S
SALMON         CLOUDY    34  28  79 SE3       29.90
BOISE          CLEAR     49  27  42 SE13      29.84S
SPOKANE        CLOUDY    55  39  54 S12       29.63R
$$

REGIONAL REPORTS...ALBERTA

CITY           SKY/WX    TMP DP  RH WIND       PRES   REMARKS
EDMONTON       CLEAR     37  30  75 SW8       29.36  WCI  31
CALGARY        MOCLDY    43  34  70 NE2       29.43R
LETHBRIDGE     PTCLDY    55  34  44 SW16G25   29.50R
MEDICINE HAT   CLOUDY    61  28  29 SW20G28   29.48S
$$

REGIONAL REPORTS...SASKATCHEWAN

CITY           SKY/WX    TMP DP  RH WIND       PRES   REMARKS
SWIFT CURRENT  MOSUNNY   57  30  35 SW25G32   29.51S
REGINA         CLOUDY    45  28  53 SE9       29.58R
SASKATOON      PTSUNNY   48  34  57 S9        29.44R
$$




USA.gov is the U.S. government's official web portal to all federal, state and local government web resources and services.